Regional Weather Roundup
Issued by NWS Cleveland, OH

Home | Current Version | Previous Version | Text Only | Print | Product List | Glossary Off
Versions: 1 2 3 4 5 6 7 8 9 10 11 12 13 14 15 16 17 18 19 20 21 22 23 24 25 26 27 28 29 30 31 32 33 34 35 36 37 38 39 40 41 42 43 44 45 46 47 48 49 50

000
ASUS41 KCLE 131402
RWRCLE
OHIO REGIONAL WEATHER ROUNDUP
NATIONAL WEATHER SERVICE CLEVELAND, OH
1000 AM EDT SUN JUL 13 2014

NOTE: "FAIR" INDICATES FEW OR NO CLOUDS BELOW 12,000 FEET WITH NO
SIGNIFICANT WEATHER AND/OR OBSTRUCTIONS TO VISIBILITY.

OHZ001>008-015>018-024>027-034-035-043-044-131500-
   NORTHWEST OHIO

CITY           SKY/WX    TMP DP  RH WIND       PRES   REMARKS
DEFIANCE       CLOUDY    77  69  76 VRB6G16   29.90S
FINDLAY        PTSUNNY   78  69  73 SW14G25   29.91R
TOLEDO EXPRESS CLOUDY    76  70  82 W12       29.88R
TOLEDO EXEC    PTSUNNY   78  69  73 W18G26    29.88R
LIMA           CLOUDY    78  69  73 W16       29.94S
$$

OHZ009>014-019>023-028>033-038-089-131500-
   NORTHEAST OHIO

CITY           SKY/WX    TMP DP  RH WIND       PRES   REMARKS
CLE-HOPKINS    CLOUDY    75  70  84 S9        29.89F HAZE
CLE-LAKEFRONT  CLOUDY    77  70  79 S14G22    29.85F
CUY CO. ARPT   CLOUDY    75  73  94 SW12      29.89F
LORAIN-ELYRIA  CLOUDY    79  71  76 SW15      29.89F
ASHTABULA      CLOUDY    72  68  87 SW13      29.90R FOG
AKRON-CANTON   CLOUDY    78  67  68 SW14G21   29.94F
WOOSTER        CLOUDY    77  69  76 SW13      29.95F
MANSFIELD      CLOUDY    77  70  79 SW14G22   29.95F
YOUNGSTOWN     CLOUDY    76  68  76 SW15G21   29.94S
$$

OHZ042-051>053-060>062-070>072-077>081-131500-
  SOUTHWEST OHIO

CITY           SKY/WX    TMP DP  RH WIND       PRES   REMARKS
CINC-COVINGTON CLOUDY    80  71  74 SW7       30.01F
CINC-LUNKEN    CLOUDY    81  72  74 SW9       29.99F
HAMILTON       CLOUDY    80  72  76 SW7       29.99F
DAYTON         CLOUDY    79  72  79 SW8       29.98S
WRIGHT-PAT AFB CLOUDY    80  71  75 SW12      29.97S
DAYTON GENERAL CLOUDY    79  71  76 SW13      29.98F
WILMINGTON     CLOUDY    78  70  76 SW14G22   29.99F
$$

OHZ036-037-039>041-045>050-054>059-063>069-073>076-082>088-131500-
  CENTRAL AND SOUTHEAST OHIO

CITY           SKY/WX    TMP DP  RH WIND       PRES   REMARKS
COLUMBUS       CLOUDY    81  68  64 SW15G24   29.97S
OSU AIRPORT    CLOUDY    79  70  74 SW12      29.97S
BOLTON FIELD   PTSUNNY   79  72  78 SW10G20   29.98S
RICKENBACK AFB CLOUDY    82  66  58 SW12G17   29.97S
NEWARK         CLOUDY    80  69  69 SW12G21   29.97S
MARION         CLOUDY    79  70  74 SW15G25   29.95S
LANCASTER      CLOUDY    80  70  71 SW10G22   29.99S
ZANESVILLE     CLOUDY    79  68  69 SW12      29.99S
NEW PHILLY     CLOUDY    79  69  71 SW9       29.97F
$$



USA.gov is the U.S. government's official web portal to all federal, state and local government web resources and services.